Theta_e
301 300 301 301 301 301 301 301 301 301 301 301 302 302 302 302 302 303 303 303 303 303 303 303 303 304 304 304 304 304 305 305 305 306 308 310 316 318 315 312 309 308 309 308 311 315 315 318 321 320 318 317 316 317 318 318 318 318 318 316 316 317 317 319 320 319 319 319 320 320 320 320 319 321 321 321 321 323 327 331 340 343 342 342 341 344 348 348
300 300 300 300 301 301 301 301 301 301 301 301 301 301 302 302 302 302 302 303 303 303 303 303 303 304 304 304 304 304 305 305 305 306 308 310 314 315 313 311 309 308 309 308 313 318 318 319 320 319 318 316 316 316 317 319 318 318 318 316 316 318 320 321 320 319 320 318 319 320 320 320 319 320 320 320 321 323 325 327 339 344 344 344 344 346 348 348
300 300 300 300 300 301 301 301 301 300 300 300 301 301 301 301 302 302 302 302 303 303 303 303 303 303 303 304 304 304 304 305 309 310 310 313 314 313 311 311 309 309 308 309 316 320 319 319 319 319 318 316 316 316 318 319 317 318 317 316 317 319 320 320 320 320 320 319 319 319 319 320 319 320 320 320 320 321 323 322 334 343 345 347 347 348 349 348
300 299 300 300 300 300 300 301 300 300 300 300 300 301 301 301 301 301 302 302 302 302 302 303 303 303 304 304 304 304 305 308 314 315 315 317 314 312 312 312 311 309 308 312 318 320 319 319 319 318 317 316 317 316 318 318 317 317 317 317 318 319 319 320 321 319 319 318 318 319 318 319 319 320 319 320 320 320 322 323 336 343 346 347 347 348 348 348
299 299 299 300 300 300 300 300 300 300 300 300 300 300 300 301 301 301 301 301 302 302 302 302 302 303 303 303 304 303 306 313 320 319 318 317 314 313 313 313 312 308 310 316 320 319 318 319 319 318 317 317 317 316 317 317 318 317 317 318 318 319 319 319 320 319 319 318 318 318 318 318 319 319 319 320 319 320 322 327 338 342 343 344 346 347 348 348
299 299 299 299 299 300 300 300 300 300 300 300 300 300 300 300 301 301 301 301 301 301 301 301 302 302 302 303 303 303 309 316 319 321 319 315 313 313 313 313 311 309 314 320 321 320 319 319 319 318 317 317 317 316 317 317 317 317 318 318 318 318 319 319 319 319 319 318 318 318 318 318 319 319 319 320 319 320 321 326 338 340 339 340 343 347 348 349
299 299 299 299 299 299 299 300 300 300 300 300 300 300 300 300 301 301 301 301 301 301 301 301 302 302 302 302 303 307 312 315 315 320 318 315 315 313 312 313 310 310 317 321 322 321 319 319 319 318 317 316 317 317 317 317 317 317 317 318 319 318 319 319 319 318 318 318 318 317 318 318 318 319 318 320 319 321 320 324 336 340 338 337 341 346 348 347
298 298 298 298 298 298 299 299 299 300 300 300 300 300 300 300 301 301 301 301 301 301 301 301 301 302 302 302 305 312 316 316 319 320 314 313 315 314 312 312 311 310 315 320 321 320 319 319 319 318 317 316 317 317 317 317 317 317 316 318 318 318 319 319 318 319 318 318 318 317 317 318 318 318 318 319 319 320 320 320 332 339 339 338 340 345 347 346
298 298 298 298 298 298 298 299 299 299 300 300 300 300 300 300 301 301 301 301 301 301 301 301 301 302 302 301 306 315 318 319 322 318 313 311 311 313 312 311 310 309 314 320 319 318 318 318 318 318 317 317 317 317 318 317 316 317 317 318 318 318 318 318 319 318 318 318 318 318 317 318 318 318 318 319 318 319 321 320 327 338 340 340 343 345 346 345
298 297 297 298 298 298 298 298 299 299 299 299 299 299 300 300 300 301 301 301 302 301 301 301 301 302 302 304 311 316 316 318 320 317 314 309 308 312 313 311 310 312 317 319 318 317 318 317 317 318 317 317 317 316 317 317 316 318 318 318 318 318 318 318 318 318 318 318 318 318 317 318 318 318 317 318 319 318 320 322 322 332 339 342 344 344 345 344
297 297 297 297 298 298 298 298 298 299 299 299 299 299 299 300 300 301 301 301 301 301 301 300 301 302 301 307 314 317 312 315 319 319 316 310 308 312 314 313 312 315 318 318 317 317 316 317 316 316 316 316 316 316 317 317 317 318 318 318 318 318 318 318 318 318 319 318 318 318 317 318 317 317 318 318 319 319 320 323 322 332 339 341 341 340 340 343
297 297 297 297 298 298 298 298 298 299 299 299 299 298 299 299 300 300 300 301 301 301 301 300 302 301 301 307 313 313 311 313 317 319 318 313 311 314 316 316 314 316 318 316 317 316 315 316 315 315 315 314 315 315 316 317 317 317 317 316 317 318 318 318 318 318 318 317 318 318 316 316 317 317 318 318 318 320 321 322 325 334 338 341 337 334 336 342
297 297 297 297 298 298 298 298 298 298 299 299 299 298 299 299 299 300 300 300 300 301 300 300 301 300 305 312 313 311 311 312 315 319 318 315 314 316 317 317 315 316 317 316 316 315 315 315 314 315 315 315 315 316 316 317 316 316 317 316 316 316 316 317 318 317 318 317 318 317 314 314 317 318 318 318 318 319 323 322 325 335 339 339 335 337 341 344
297 297 297 298 298 298 298 298 298 298 298 299 299 298 298 299 299 299 300 300 300 301 300 301 301 300 308 315 312 312 312 312 316 317 317 316 316 317 317 317 316 316 316 317 317 316 315 314 314 314 314 315 316 316 317 317 316 316 316 316 315 313 314 317 318 318 317 317 318 317 313 313 316 318 318 318 318 319 323 321 323 335 340 337 336 342 345 347
297 297 297 298 298 298 298 298 298 298 298 299 298 299 299 299 299 299 300 300 300 301 301 302 301 304 313 315 311 313 311 311 315 315 316 316 317 318 317 316 316 317 317 317 317 316 315 314 314 314 314 315 315 316 317 317 316 316 314 313 315 313 314 318 319 318 317 317 318 316 313 314 316 318 319 319 318 319 321 321 321 334 341 340 342 344 344 346
297 297 297 298 298 298 298 298 298 298 298 298 298 299 299 299 299 299 300 301 303 303 302 307 306 306 314 317 314 314 310 310 312 314 316 315 317 318 316 316 316 317 317 316 316 315 315 315 314 314 314 315 315 315 316 315 315 316 315 312 314 314 314 317 318 318 318 317 318 316 314 315 316 318 320 319 319 319 320 322 320 331 340 341 343 342 341 343
297 297 297 298 298 298 298 298 298 298 298 298 298 299 299 300 300 300 302 303 304 304 304 313 316 311 313 315 314 315 312 311 310 312 316 316 317 317 316 316 316 317 317 316 316 315 314 314 313 314 314 315 315 315 314 313 313 315 316 314 314 315 314 315 317 318 319 317 317 317 316 316 316 318 320 319 320 319 320 321 319 330 338 338 340 339 338 340
297 297 297 298 298 298 298 298 298 298 298 298 298 299 299 299 299 300 305 306 307 309 308 314 317 315 315 314 314 315 314 312 310 311 314 315 316 316 316 316 316 317 317 317 317 315 315 314 314 313 313 314 315 315 313 312 314 315 315 315 315 315 315 315 317 318 319 317 317 317 316 316 317 318 320 320 320 320 320 321 319 330 337 336 337 337 336 337
296 297 297 298 298 298 297 297 297 298 298 298 299 299 300 304 308 307 308 310 312 314 315 315 314 314 315 314 313 315 315 314 312 310 312 313 314 314 316 316 316 317 317 317 317 316 315 314 314 313 313 314 315 315 315 315 316 317 317 317 315 315 315 317 318 318 318 317 317 317 316 316 317 318 319 319 320 320 320 321 319 328 337 335 335 336 334 334
297 297 297 298 298 297 297 297 297 297 297 299 298 300 308 316 320 317 314 314 316 315 315 316 314 312 313 314 313 315 316 316 314 312 312 312 312 313 314 315 317 318 317 317 317 316 315 314 314 313 313 315 315 316 316 316 317 317 318 317 317 316 316 318 319 318 318 317 317 318 316 316 317 317 319 319 319 319 319 320 318 324 336 336 334 335 334 333
297 297 297 297 297 297 297 297 297 297 297 298 298 303 314 318 316 316 315 316 317 315 314 314 314 313 314 313 313 316 316 316 315 314 313 313 312 313 314 315 317 317 317 318 317 317 315 314 314 314 315 315 316 317 317 317 317 317 317 316 317 316 316 319 319 318 319 317 317 318 317 317 317 317 318 318 318 319 319 320 319 319 329 334 334 334 334 334
297 297 297 297 297 296 296 296 297 297 297 298 298 302 312 314 311 311 311 312 314 315 315 315 313 314 314 313 314 315 315 315 315 315 316 315 312 313 314 314 316 317 317 317 317 317 315 314 314 315 316 316 316 317 317 317 316 316 317 317 316 317 317 318 318 319 318 318 317 318 317 317 318 318 318 319 318 319 319 319 320 319 320 327 333 335 334 333
297 297 296 297 296 296 297 297 297 297 298 298 298 303 311 311 310 310 310 311 312 312 314 315 314 313 312 313 313 313 314 315 315 315 316 315 313 313 315 315 315 316 317 316 317 317 316 315 316 315 316 316 316 316 317 318 318 317 318 317 316 317 316 314 317 319 318 318 318 318 318 317 318 319 318 320 319 319 319 318 319 320 319 321 329 334 335 334
297 296 296 296 296 296 297 297 297 297 298 298 299 305 311 309 308 310 311 312 313 312 313 314 313 313 312 312 312 313 313 313 314 316 316 315 314 313 314 315 315 315 317 317 316 317 317 317 317 316 315 316 316 316 317 318 318 318 318 317 316 316 316 314 317 318 318 319 319 318 316 316 318 318 318 319 319 319 319 319 318 319 319 319 323 331 334 334
296 296 296 296 296 297 296 299 303 304 304 303 304 307 308 308 309 311 312 314 315 314 313 314 312 312 313 312 312 313 312 312 312 315 316 315 315 314 314 316 315 315 316 316 317 316 317 319 318 316 316 315 316 316 317 318 317 317 318 317 316 316 316 316 317 318 316 316 318 318 314 314 317 317 318 318 317 319 318 319 319 318 320 319 319 325 331 334
296 296 296 296 297 296 299 308 311 309 309 308 309 310 307 310 311 310 314 316 316 315 314 314 312 312 314 313 313 312 312 312 311 314 317 315 315 315 314 315 316 315 316 317 317 317 317 318 317 317 317 316 316 316 317 318 315 314 316 317 317 316 316 316 316 316 314 313 317 318 314 313 316 316 319 319 318 319 318 319 319 317 319 319 319 320 324 331
295 296 296 296 297 296 301 312 311 306 309 309 310 309 308 311 310 309 315 316 313 315 314 312 312 313 314 314 314 313 312 313 312 312 315 316 315 316 315 315 315 315 316 316 315 317 318 318 317 317 317 317 316 316 316 317 315 314 316 317 317 316 316 316 315 315 315 315 316 317 315 313 313 315 319 319 318 319 318 320 322 321 319 319 322 323 321 326
295 296 296 296 297 295 298 305 307 306 309 310 310 308 308 310 309 311 318 318 315 315 315 313 313 313 314 314 313 313 314 314 312 311 313 315 315 315 316 315 316 315 315 316 313 316 318 317 317 317 317 317 317 316 316 316 315 315 317 317 316 317 317 317 316 315 316 315 313 314 315 313 312 315 319 318 318 319 320 325 328 327 325 326 327 327 326 325
296 295 296 296 296 298 300 299 300 304 309 310 308 307 308 309 310 314 319 319 316 314 316 314 313 314 314 315 314 314 315 314 313 312 311 315 315 315 316 316 316 316 315 315 314 317 318 317 317 317 317 317 316 316 316 315 316 316 317 316 316 316 317 317 316 314 314 315 313 314 314 313 312 314 316 317 321 325 327 328 329 328 328 329 329 329 328 325
296 295 297 296 296 303 306 301 299 302 306 308 307 307 310 310 313 317 315 316 315 314 315 314 313 314 314 314 314 314 316 315 315 313 311 314 314 314 316 316 316 316 316 315 314 316 318 318 318 317 317 318 316 316 316 316 316 317 317 316 316 316 317 317 316 314 314 314 313 313 314 313 312 313 316 319 324 328 329 329 329 328 328 328 329 329 329 327
296 296 296 295 297 303 305 304 305 306 307 307 305 307 311 313 316 317 315 314 313 313 314 313 314 314 313 313 314 314 315 315 315 313 312 313 314 314 315 316 315 315 316 315 315 315 316 317 317 317 318 318 317 316 316 317 316 317 316 315 315 315 315 315 314 314 313 313 313 313 314 313 311 313 319 324 326 328 328 328 327 328 327 328 329 329 329 330
295 296 296 296 297 299 303 308 309 309 310 306 304 308 313 314 314 315 316 312 312 313 313 314 314 314 314 313 314 314 314 315 315 313 313 312 313 313 313 314 315 314 314 315 315 315 316 316 316 317 318 317 317 316 315 316 316 316 315 314 314 313 313 313 312 313 313 313 313 313 314 313 314 318 322 324 326 327 328 329 329 329 330 331 331 329 329 332
295 296 296 296 297 296 302 309 309 308 308 305 305 311 314 315 313 313 315 312 312 313 312 314 314 313 314 313 314 315 314 314 314 314 313 312 312 312 312 313 315 315 314 315 315 315 315 316 316 317 317 317 316 315 314 315 315 315 314 314 313 313 313 313 312 313 313 314 315 316 315 313 316 324 325 323 325 327 329 330 331 332 333 334 333 331 330 331
295 296 296 296 297 296 300 308 308 306 306 306 310 314 315 316 315 312 313 313 312 313 312 314 313 312 313 313 314 315 314 314 315 314 314 312 312 312 312 312 314 315 315 315 315 315 314 315 316 316 316 317 316 315 315 315 316 316 315 315 314 313 313 313 312 314 315 316 317 317 316 314 317 323 325 325 326 327 328 329 330 331 333 335 334 333 332 330
295 297 297 297 299 298 299 305 305 303 307 311 312 314 315 316 315 311 312 312 312 313 312 312 312 311 312 312 314 315 315 315 315 314 314 313 312 312 312 312 313 314 314 314 315 315 314 315 316 317 317 317 316 315 317 316 315 317 317 315 314 314 314 312 313 315 315 316 316 316 316 319 322 324 325 327 328 328 328 328 330 331 332 334 334 334 333 332
298 302 302 300 301 302 301 303 302 303 310 315 313 313 314 313 313 312 312 311 311 311 311 311 311 310 311 311 312 314 315 315 316 315 314 313 313 312 313 313 313 313 314 314 315 315 314 315 317 317 318 317 317 317 316 315 315 316 316 314 314 315 315 313 313 315 315 315 316 316 317 320 324 326 326 327 328 328 327 328 330 331 331 331 331 332 331 332
300 308 310 307 307 308 306 304 304 306 311 316 315 315 313 311 312 311 310 311 311 310 310 310 310 310 310 311 312 313 314 315 315 315 314 314 313 313 313 314 314 313 314 315 316 316 315 315 317 317 317 317 318 318 317 316 316 315 314 315 316 316 315 314 314 314 315 316 316 315 316 320 325 327 326 326 327 328 328 328 329 330 329 328 328 329 330 331
301 309 313 314 313 313 310 308 308 309 312 314 315 315 312 311 311 310 310 311 310 310 309 308 310 311 310 311 312 313 314 315 315 315 314 314 314 315 315 315 316 314 314 315 315 316 316 314 316 317 317 318 318 317 316 317 316 315 316 317 317 316 314 314 314 314 316 317 317 315 315 321 326 326 325 326 327 327 328 328 328 328 328 327 327 327 327 328
303 311 314 314 313 313 311 309 309 310 311 312 313 313 312 311 310 310 310 310 309 309 308 308 310 311 310 311 313 313 314 314 315 315 315 315 316 318 317 316 317 316 316 316 315 316 316 315 316 317 317 317 317 316 315 316 317 316 316 317 317 316 315 315 314 314 315 316 317 315 315 323 326 325 326 326 326 327 327 328 327 325 326 327 327 328 327 328
306 313 315 313 312 311 309 308 310 311 310 311 311 311 311 310 309 310 309 309 309 308 308 310 310 311 312 311 312 314 314 314 315 315 316 317 317 318 318 316 317 318 318 316 315 316 316 316 316 317 316 316 315 316 315 315 316 315 314 314 315 315 316 316 316 315 314 315 317 316 318 324 326 325 326 326 326 326 326 326 325 325 327 327 328 328 328 329
309 313 314 314 312 309 307 309 311 310 309 310 310 310 310 310 310 310 310 309 309 309 310 311 311 312 313 312 313 313 313 314 314 314 317 318 317 317 319 319 318 320 321 319 315 316 316 317 317 317 316 316 315 316 317 316 316 316 315 314 314 315 315 315 315 315 315 316 318 317 320 326 327 325 326 325 325 325 324 324 325 325 326 326 326 326 326 327
312 313 314 315 312 308 307 310 312 311 310 310 311 311 311 310 310 311 312 310 308 309 311 311 311 312 312 313 313 313 313 314 313 314 318 320 319 319 320 320 319 320 321 319 318 318 318 318 318 317 316 316 317 317 317 317 317 316 315 315 315 315 314 313 315 317 316 316 318 317 320 326 326 324 324 324 324 325 325 325 326 325 324 324 324 324 324 325
313 314 314 315 313 310 310 311 311 311 312 312 311 311 311 310 310 310 311 310 308 309 311 311 310 311 311 312 312 313 314 313 313 315 317 319 320 320 319 320 319 319 319 320 320 319 318 317 317 317 318 317 317 318 317 318 318 318 319 321 321 320 318 316 317 319 317 317 319 319 320 325 325 324 324 324 324 325 324 324 325 324 323 323 322 322 323 323
313 313 315 315 313 313 314 313 312 312 312 313 312 312 311 311 310 310 311 310 310 310 310 311 311 311 311 312 312 313 314 313 313 315 317 318 319 319 319 319 318 319 320 320 321 320 319 318 317 318 319 319 318 319 318 318 318 319 321 322 323 323 324 322 320 321 319 316 318 319 321 325 325 324 324 324 324 324 323 323 323 322 322 322 321 321 321 321
312 312 314 315 314 315 316 315 314 312 312 313 313 312 312 311 311 311 312 311 311 312 311 312 312 311 311 311 312 312 312 313 313 314 316 317 318 318 319 319 319 320 321 321 321 321 320 320 319 319 320 321 321 321 320 321 320 320 321 322 322 323 325 325 323 322 322 320 318 320 323 325 325 325 324 323 323 321 321 321 321 321 321 321 320 320 320 320
313 312 313 314 314 315 314 314 315 313 312 312 312 312 312 311 311 311 311 311 312 311 312 312 312 312 311 311 312 312 311 312 312 313 316 317 317 318 319 319 320 320 320 320 320 320 321 321 321 321 322 322 322 321 320 320 321 321 322 323 323 322 323 323 323 323 323 323 322 322 325 325 324 325 324 322 320 319 318 319 318 319 319 320 320 319 318 318
313 312 313 314 314 314 313 314 314 313 312 312 311 311 312 311 312 310 309 310 312 311 311 311 311 311 311 311 312 313 312 312 312 312 314 316 317 317 318 318 318 318 319 320 320 321 321 320 321 323 322 321 321 321 320 320 320 321 322 323 323 323 322 322 323 324 323 322 323 324 325 326 324 323 322 320 318 317 316 316 316 316 316 317 318 317 316 315
312 312 314 314 313 313 313 313 313 312 312 311 311 312 312 311 311 311 309 310 311 311 311 311 310 310 311 311 312 312 312 313 313 313 313 314 316 317 317 317 317 317 319 319 319 320 321 321 321 322 321 319 320 320 320 320 320 320 320 321 322 322 322 322 323 324 324 323 324 324 324 323 322 320 318 317 316 315 314 314 313 312 313 314 315 314 314 313
312 313 313 313 313 313 312 312 312 312 312 311 310 311 312 311 311 311 310 310 311 310 310 311 310 310 310 310 311 312 312 314 314 315 315 315 316 317 317 317 317 317 318 319 320 320 319 319 321 321 320 319 320 320 319 320 320 320 319 319 320 321 321 321 321 322 323 324 323 322 321 320 318 316 315 315 314 313 312 311 310 310 310 311 311 312 311 311
312 313 312 313 313 312 312 311 312 312 311 310 310 310 311 311 311 311 311 311 311 311 311 311 310 311 311 310 311 312 312 314 316 316 315 315 315 315 315 316 316 316 316 318 319 319 318 318 320 320 318 319 320 320 320 320 320 319 318 317 319 320 320 319 319 319 321 322 322 321 321 318 315 314 314 312 311 311 309 309 309 308 308 309 309 309 309 309
312 312 313 313 312 311 311 311 311 311 309 309 310 310 310 311 310 311 311 310 311 311 311 311 311 311 311 311 311 312 312 314 315 315 314 314 314 314 314 315 315 315 315 317 318 318 317 318 319 319 317 318 319 320 320 320 319 317 316 316 317 318 318 317 316 316 317 319 320 320 320 318 315 313 312 310 309 308 307 307 307 307 307 307 307 307 307 307
312 312 312 313 310 309 310 310 310 310 308 309 310 310 310 310 310 311 310 309 310 311 310 311 311 311 311 311 311 312 312 312 312 312 312 312 312 312 312 313 314 314 315 316 317 317 316 316 316 317 316 317 320 321 320 320 320 318 315 314 315 317 316 315 314 314 314 315 316 317 316 315 313 312 310 308 307 307 306 306 306 306 306 306 306 306 306 305
Wind_Speed
7 6 7 7 7 7 6 6 6 6 6 6 6 6 6 7 8 8 8 8 8 8 7 7 7 8 8 8 9 10 11 12 12 12 15 12 8 12 12 10 10 9 11 11 11 10 11 12 12 12 11 12 13 13 13 13 13 9 6 6 6 7 8 6 6 6 4 9 8 6 7 3 3 4 5 6 9 10 5 5 10 15 7 7 8 14 20 22
6 6 7 7 7 8 7 7 6 7 7 7 7 6 7 8 9 9 9 9 9 9 8 8 8 8 8 8 9 11 12 13 14 16 17 14 12 14 13 12 12 11 13 13 13 13 13 12 12 12 12 12 12 13 12 12 13 9 6 5 8 8 6 5 7 5 5 7 5 3 3 1 3 5 5 7 8 6 6 9 12 18 12 11 11 16 20 23
6 6 7 7 7 8 8 8 7 7 7 7 7 7 8 8 9 9 9 9 9 9 9 8 9 8 8 8 9 11 13 13 16 17 15 12 12 13 12 13 13 13 14 13 11 13 13 10 11 12 13 12 12 13 12 11 11 10 9 5 9 9 5 7 6 5 6 6 4 4 3 3 6 7 4 6 9 7 9 11 11 19 16 14 13 15 18 21
6 6 7 7 7 8 9 9 8 8 8 7 8 8 8 8 9 9 9 9 9 9 9 9 9 9 8 8 9 10 12 14 12 11 10 9 10 10 11 11 13 13 13 14 10 12 12 10 11 12 12 12 12 13 10 9 9 10 9 8 11 9 7 6 5 5 7 7 7 7 5 5 9 7 6 8 9 7 8 9 10 24 19 16 15 15 18 20
7 6 6 7 7 8 9 10 10 9 9 8 8 8 9 9 9 9 8 9 9 9 9 9 8 8 8 7 8 9 10 7 1 8 7 7 7 8 9 10 11 13 14 15 10 12 13 12 11 12 12 10 11 11 10 12 11 8 8 12 15 12 9 6 4 4 6 8 10 10 8 9 9 7 8 11 10 7 8 8 16 27 20 18 17 17 18 20
7 7 7 7 8 8 9 10 11 10 10 10 9 9 10 10 10 9 9 8 9 9 8 8 8 8 8 7 8 9 6 2 3 6 7 5 7 7 8 10 12 15 18 14 9 12 15 14 12 13 11 10 11 10 10 14 13 8 8 12 16 14 11 8 5 3 4 6 10 10 9 10 9 8 10 12 12 12 10 4 16 21 18 16 17 19 18 19
8 8 7 7 8 8 9 10 11 11 11 11 10 10 10 10 10 9 9 8 8 9 8 8 8 8 7 7 8 8 11 11 6 7 7 5 7 6 7 10 13 19 20 12 10 13 15 15 14 14 11 9 11 11 11 14 14 10 9 11 14 13 10 12 10 5 5 7 10 10 10 10 8 9 11 13 12 13 12 2 14 16 16 17 18 19 17 13
9 9 8 8 8 8 9 10 11 12 12 12 11 10 10 11 11 10 9 8 8 8 8 8 8 7 7 6 6 9 16 14 8 8 6 5 6 4 5 10 14 20 18 11 12 13 14 15 15 14 10 10 10 11 12 12 12 12 11 11 13 13 10 11 11 9 9 10 11 11 11 12 12 12 13 14 9 13 15 1 10 18 21 20 19 17 12 7
9 10 9 9 8 8 9 10 11 12 13 13 11 11 11 11 11 11 9 8 8 7 7 7 8 7 7 6 6 9 9 6 7 10 9 7 7 6 5 9 15 19 15 11 12 13 13 14 15 15 12 11 11 10 11 9 8 9 12 14 13 14 12 10 11 11 12 11 11 11 11 13 15 13 13 15 13 19 16 2 4 18 24 18 17 16 12 9
9 10 10 10 9 9 10 10 11 12 13 13 12 11 11 11 12 11 10 8 7 7 6 7 8 7 6 6 7 7 2 2 3 8 10 8 8 9 7 9 13 16 13 11 13 14 14 13 13 15 13 13 12 9 8 9 7 5 10 13 13 14 14 13 12 12 12 12 12 12 11 12 15 12 10 13 18 22 12 4 10 12 18 18 20 15 10 10
9 10 11 11 10 10 10 11 12 13 14 13 12 11 11 11 12 11 10 8 7 7 6 6 7 7 5 6 11 9 1 2 2 3 6 6 8 11 10 10 12 13 12 11 13 13 14 13 10 10 8 8 10 9 9 13 12 10 10 10 11 13 14 15 14 12 10 10 12 13 12 13 14 12 10 14 20 18 10 10 12 8 18 22 21 13 5 11
9 9 10 11 11 11 11 11 12 13 14 13 12 12 12 12 11 11 10 8 8 7 6 7 7 7 5 9 16 13 4 3 4 5 7 7 10 11 11 11 12 12 12 10 11 12 13 11 9 11 7 4 8 8 7 13 15 14 11 9 11 12 13 15 15 15 12 9 13 13 10 11 12 13 14 18 25 16 10 13 9 14 20 22 22 14 8 14
9 9 10 11 11 11 11 12 13 13 14 13 12 12 12 12 11 10 9 8 8 7 7 7 7 6 5 11 13 9 6 6 6 8 9 10 11 11 11 12 12 12 10 9 9 10 12 9 9 13 11 8 9 5 5 8 12 12 11 8 9 10 10 15 17 17 14 12 12 7 6 9 10 16 18 19 25 16 10 12 9 17 21 22 22 17 14 14
10 10 10 11 12 12 11 12 13 13 13 12 12 12 11 11 10 10 9 8 7 7 7 6 7 5 6 12 7 4 8 7 7 10 11 12 13 12 12 12 12 11 9 9 6 6 9 9 9 12 13 14 13 8 7 7 8 8 9 8 7 7 9 15 16 15 12 12 11 5 4 9 12 16 20 22 23 17 12 12 12 15 22 21 21 18 16 14
11 11 11 11 12 12 12 12 13 13 13 12 12 12 11 10 10 10 9 8 7 6 5 5 7 6 8 14 9 9 12 10 10 11 12 15 15 13 12 12 12 10 9 9 6 5 7 8 10 11 12 15 14 9 7 7 7 7 7 7 7 7 9 11 12 14 10 9 10 7 6 8 13 17 18 27 25 18 12 10 13 13 22 20 20 18 14 13
12 11 11 12 12 12 12 12 13 13 12 12 12 11 11 10 10 10 8 7 6 5 4 3 3 5 7 10 8 10 12 13 14 13 14 15 15 13 13 12 12 10 9 10 7 7 8 9 11 12 12 12 9 8 7 6 7 7 7 7 8 8 8 5 11 15 12 9 9 9 9 7 11 15 10 16 17 12 10 10 14 11 22 20 20 18 14 13
12 12 12 12 13 12 12 12 13 13 12 12 12 10 10 10 10 10 8 6 5 3 5 4 1 6 10 7 6 12 15 14 14 15 15 16 15 13 13 12 12 12 10 10 9 8 9 11 10 10 11 9 7 8 7 7 7 6 7 7 9 10 9 5 11 14 13 9 7 10 9 9 14 13 2 11 12 9 11 12 14 9 20 18 18 18 15 14
13 12 12 12 13 13 12 12 13 12 12 12 10 9 10 11 11 10 7 4 3 2 4 6 5 6 12 15 14 13 16 14 14 18 17 15 16 13 13 13 12 12 11 11 11 12 11 11 10 7 8 8 8 8 7 9 8 8 9 7 8 10 11 7 8 12 11 8 7 10 9 9 15 13 2 8 11 12 13 14 16 12 19 18 18 18 16 15
13 12 12 12 13 13 12 12 12 12 12 10 9 10 10 10 10 10 7 6 7 5 4 9 16 6 5 11 15 6 10 13 13 17 18 17 16 14 12 12 12 14 12 9 10 14 11 9 9 7 7 9 10 11 10 12 13 12 9 6 8 8 9 10 5 10 8 6 7 8 9 9 12 13 8 8 11 15 15 13 16 12 20 18 16 19 16 16
13 13 13 13 13 13 12 12 12 11 11 8 8 9 8 7 6 5 7 13 17 14 10 10 22 16 5 7 13 6 10 12 11 15 18 17 16 15 14 14 14 13 11 9 9 13 12 7 8 8 9 12 13 14 14 15 17 15 10 7 9 8 9 11 8 12 9 5 5 7 9 10 11 12 12 13 12 12 14 13 13 13 18 21 18 19 19 18
13 13 13 13 12 12 11 12 11 10 10 7 7 8 6 6 5 1 3 12 20 22 22 15 17 20 12 7 10 11 11 10 11 13 16 17 17 15 15 15 13 10 11 13 10 11 11 8 9 11 13 14 13 14 14 16 18 14 9 7 10 8 6 9 6 9 9 5 4 7 11 12 12 12 13 15 13 14 13 10 13 15 14 20 22 21 21 21
14 13 13 13 12 11 11 12 11 9 8 7 8 9 7 7 6 5 6 10 16 21 25 21 17 19 17 10 7 10 10 11 13 15 16 18 18 15 14 15 11 8 11 13 9 8 9 8 11 14 14 13 13 13 13 14 16 11 6 7 9 7 6 9 8 5 6 4 3 6 10 11 12 13 13 13 11 13 19 15 12 15 18 17 22 21 21 21
15 14 13 12 10 9 10 11 10 9 8 8 10 9 7 9 6 7 8 10 14 17 22 22 20 19 17 15 12 10 11 12 13 17 19 18 19 18 14 14 11 11 11 11 10 8 6 10 16 16 13 13 14 11 8 8 10 7 5 7 8 9 8 7 8 8 5 1 1 6 10 9 11 11 10 11 13 14 19 22 16 16 17 17 20 25 24 23
15 13 13 11 9 8 10 10 9 9 7 7 9 9 8 9 6 8 9 9 10 12 18 21 20 19 18 17 16 16 16 14 14 17 21 18 19 18 13 13 12 11 11 13 14 11 10 14 16 16 15 15 12 8 7 6 6 6 8 10 9 11 11 10 10 8 5 1 3 6 9 7 9 12 11 12 14 17 18 21 21 18 19 19 19 24 27 27
15 13 12 9 7 7 8 7 5 5 4 6 6 5 7 7 4 6 7 7 8 8 13 15 16 15 16 14 13 18 17 15 16 17 22 21 19 15 12 13 11 10 12 15 15 11 12 15 10 10 12 11 9 7 9 8 6 8 10 12 14 14 14 14 13 9 6 6 8 9 8 6 9 14 14 13 14 17 18 18 19 19 18 18 18 20 27 31
14 13 10 7 6 5 4 2 1 1 6 9 6 2 4 5 4 5 4 4 5 6 10 12 13 10 14 14 13 15 12 14 19 17 21 22 19 16 11 10 9 10 13 13 11 7 10 15 9 7 7 5 7 8 10 10 7 7 9 12 15 16 15 16 14 10 7 7 7 8 8 5 7 9 10 11 12 15 16 16 17 18 17 18 18 18 21 30
14 12 10 6 5 5 5 3 5 5 6 5 4 2 3 4 4 3 2 5 5 7 11 10 10 10 13 14 15 14 5 8 18 20 20 21 19 18 12 9 10 10 11 9 8 6 9 15 11 9 10 7 8 9 9 11 9 6 9 12 14 15 16 16 13 9 8 8 9 10 10 7 7 8 10 13 13 13 11 6 7 10 13 13 6 3 6 9
13 11 9 5 5 6 8 8 9 8 3 1 2 2 3 5 3 2 3 4 3 8 9 8 7 8 11 13 18 15 3 4 15 18 21 20 19 18 12 12 11 10 12 10 8 7 9 13 10 10 9 7 8 10 11 12 10 8 11 12 11 9 11 11 8 8 9 8 9 10 10 9 8 7 9 13 12 12 7 4 8 7 9 8 11 15 16 16
12 11 9 6 5 4 6 10 13 11 2 3 3 4 4 5 2 2 5 3 4 7 7 8 8 9 11 12 17 18 8 6 8 14 22 20 18 18 12 13 14 12 14 12 9 8 8 10 11 9 8 8 9 11 12 12 10 9 12 12 9 5 6 8 8 8 8 8 9 10 10 8 7 6 7 9 5 5 4 8 10 10 15 15 16 16 13 19
12 11 8 6 5 3 4 8 9 9 4 4 5 5 4 4 3 4 4 2 4 7 9 9 9 11 13 11 12 15 12 9 6 13 22 17 17 19 14 13 15 12 12 12 11 12 8 9 11 9 7 8 11 11 11 11 8 8 9 9 7 5 6 7 7 7 6 8 10 12 12 10 8 7 5 3 3 8 6 6 7 9 12 14 16 17 13 15
12 11 9 8 8 8 7 6 2 1 5 7 7 5 4 3 4 5 4 2 3 8 10 8 9 12 15 12 10 12 12 10 7 11 14 12 13 16 12 10 10 8 9 9 11 14 13 9 8 6 4 6 11 10 10 10 8 7 7 5 5 5 6 7 7 7 7 8 10 13 15 13 9 6 1 6 10 11 8 6 8 8 9 12 13 13 13 14
12 11 11 9 10 12 11 9 8 4 4 10 8 5 5 4 5 6 3 1 2 6 7 9 10 11 14 13 11 13 12 9 10 11 10 10 10 11 10 8 7 7 8 8 9 11 11 11 10 8 8 11 11 8 9 10 9 9 7 6 6 5 6 7 6 6 7 7 10 12 12 10 5 3 5 10 12 12 10 9 10 10 11 13 13 11 11 11
12 12 12 10 11 15 13 10 12 8 5 8 7 5 6 4 6 8 5 3 4 4 6 10 12 10 13 12 11 13 12 10 13 12 11 12 9 10 14 14 11 9 7 7 9 9 8 11 13 12 10 12 13 8 7 8 9 8 8 7 7 6 6 7 6 6 7 6 8 11 10 8 3 5 9 10 10 9 9 9 9 10 10 10 10 9 8 7
12 12 11 9 11 14 15 14 12 8 4 6 5 6 6 5 6 8 7 5 5 4 3 5 7 7 9 9 9 11 10 9 13 13 11 12 9 9 12 15 16 12 7 7 7 8 9 9 10 10 8 12 13 12 10 8 7 8 8 8 7 6 6 6 5 5 6 5 7 8 6 5 4 1 5 9 9 8 9 9 7 6 7 7 8 7 7 7
11 9 8 8 10 12 16 16 13 9 6 6 6 6 6 6 6 7 6 2 4 4 5 4 3 6 8 8 10 11 9 8 12 13 10 10 9 9 10 13 16 14 9 7 5 7 10 8 8 12 10 12 13 13 13 11 8 8 9 9 8 7 6 5 4 5 4 3 5 5 3 3 3 4 6 8 8 8 8 8 7 5 6 8 10 10 9 9
7 4 5 6 8 8 12 14 13 11 8 7 7 6 6 7 4 1 3 4 3 2 3 5 7 8 7 7 9 10 8 6 9 10 9 10 11 11 10 10 14 16 12 7 4 5 8 7 9 12 11 11 13 12 13 12 7 5 7 9 8 9 8 5 5 5 4 4 4 4 3 2 5 3 6 6 7 7 5 5 6 5 8 11 10 9 8 7
7 5 5 7 7 7 10 11 12 12 9 8 7 5 6 8 3 3 5 6 3 1 2 3 7 7 7 7 7 9 9 5 7 8 7 9 10 12 14 12 14 18 16 11 6 5 6 6 8 12 11 12 14 13 13 14 10 5 5 7 8 9 8 5 4 5 5 6 5 6 6 3 4 1 5 6 5 6 4 4 4 5 9 9 5 5 5 4
8 6 8 10 9 9 11 12 12 13 9 7 7 7 8 6 0 4 6 6 3 1 5 6 4 6 8 6 7 10 9 6 7 7 6 8 7 7 8 8 12 17 19 16 7 3 4 5 8 12 11 11 13 12 11 13 14 11 7 6 5 6 6 5 4 5 6 6 4 7 8 2 5 1 1 4 5 6 6 4 5 8 10 6 2 3 5 4
8 5 6 9 10 11 14 14 14 12 9 7 6 6 8 6 1 3 5 5 5 3 5 7 4 4 7 6 4 7 8 6 7 6 7 5 2 5 5 2 5 12 17 16 8 3 4 4 5 9 10 9 9 8 7 8 12 12 10 8 5 4 4 3 3 4 6 6 4 7 6 2 4 2 3 1 2 4 6 5 9 10 9 8 9 10 8 10
8 4 4 10 10 11 15 15 13 10 7 7 6 5 7 5 2 3 2 4 5 4 5 6 4 3 5 6 5 3 5 5 6 7 6 1 2 4 6 5 3 7 8 12 11 6 6 4 4 6 8 8 7 7 8 9 9 9 9 8 7 5 4 4 4 4 5 4 4 6 3 2 2 3 4 2 2 3 3 6 8 6 7 12 16 18 17 18
7 5 4 12 10 12 17 13 10 8 6 6 9 8 4 1 2 4 2 3 6 5 5 6 5 3 3 6 5 0 2 5 5 6 4 1 2 1 5 8 5 7 10 9 8 3 2 4 5 5 6 8 7 8 9 9 7 7 7 8 8 7 5 6 6 6 6 4 4 5 1 3 2 5 6 5 4 4 5 7 4 4 10 15 17 20 20 19
8 5 6 13 12 14 15 9 6 7 7 6 6 3 4 2 3 1 2 4 5 6 4 5 6 4 5 6 4 3 4 4 5 4 2 4 1 2 4 11 9 4 5 8 5 4 4 0 4 5 6 7 6 5 5 9 11 10 9 7 8 8 7 8 6 4 5 3 3 3 2 4 3 6 8 6 6 6 7 7 6 9 13 15 17 18 18 17
9 4 8 14 14 13 10 6 5 7 7 3 3 2 4 2 5 1 2 6 5 4 4 3 4 4 5 4 4 5 4 4 4 1 5 6 3 3 4 8 11 8 3 4 7 6 3 2 4 5 5 7 8 6 5 6 10 8 5 5 6 6 7 7 4 0 2 2 1 1 1 3 3 6 8 4 2 6 11 11 11 13 14 15 16 15 15 16
5 2 8 12 13 10 7 4 4 6 6 3 3 2 0 2 4 2 3 5 4 2 3 3 3 3 4 2 2 5 1 2 5 1 6 4 2 3 4 2 6 8 2 2 3 4 2 3 4 5 5 5 6 6 6 4 5 4 4 8 11 13 15 11 4 3 2 4 3 2 0 2 3 5 7 5 3 7 11 13 14 15 14 13 13 13 14 15
2 4 7 11 13 11 6 5 5 5 5 4 3 4 4 3 3 3 5 2 2 1 1 4 3 2 3 3 3 6 4 2 4 1 6 4 3 3 4 1 2 3 1 3 1 2 2 1 2 5 5 4 4 3 3 4 3 4 7 10 13 16 16 10 3 3 4 5 2 2 2 3 3 5 7 6 6 9 12 14 15 15 13 12 11 13 14 14
1 3 5 9 13 13 10 11 13 7 4 5 3 4 6 4 3 3 5 3 1 2 2 4 4 3 3 5 4 5 7 6 5 2 3 5 3 4 3 2 4 3 2 2 1 1 1 1 2 3 3 2 1 1 5 8 5 5 8 11 12 13 14 9 3 3 3 5 3 3 4 6 6 6 7 7 7 8 11 13 14 14 14 13 13 14 15 16
1 1 5 8 8 9 10 13 13 5 3 5 3 3 6 4 3 4 3 3 1 3 5 4 5 4 3 4 4 4 7 6 5 5 3 6 4 1 4 2 3 3 1 2 2 2 1 1 3 4 4 3 1 2 5 10 7 4 8 9 11 12 13 11 6 3 1 4 2 4 5 7 8 7 8 8 8 8 11 13 14 15 16 16 15 16 17 18
3 2 5 7 5 5 6 8 7 3 3 6 2 2 3 4 2 4 2 5 4 2 4 3 4 7 5 4 3 3 6 6 4 4 1 3 4 2 2 4 2 4 1 2 1 0 1 1 1 2 4 2 1 0 2 6 8 4 8 8 9 12 12 10 7 7 4 1 2 6 8 7 7 8 9 9 9 10 12 14 15 16 18 18 18 18 19 19
6 4 5 8 5 3 4 3 4 4 2 2 2 1 2 3 2 3 1 4 2 2 4 3 3 9 7 4 3 2 3 4 3 4 4 4 1 2 1 3 3 6 3 1 3 1 2 1 3 2 5 1 1 1 4 3 8 4 9 10 10 12 11 10 9 10 9 8 7 9 11 9 6 7 9 10 12 13 14 16 17 18 19 19 19 19 19 20
6 4 5 7 4 4 5 4 4 4 3 1 2 3 2 3 3 3 3 1 0 1 4 2 3 7 5 1 3 2 1 2 3 3 3 2 3 0 1 2 2 5 4 2 2 1 1 1 3 2 5 1 2 1 3 5 3 5 13 14 12 12 11 10 10 9 8 7 6 8 9 7 5 7 10 13 14 14 16 17 18 18 18 18 18 18 19 20
8 9 10 7 2 4 4 4 3 3 4 2 2 3 2 4 4 1 2 3 2 2 3 2 2 5 4 2 4 2 3 3 1 2 2 2 3 1 0 2 4 2 2 1 1 0 1 0 2 1 5 1 2 1 4 8 7 9 15 16 13 11 10 9 9 9 8 7 4 5 6 4 4 8 11 14 15 16 17 17 16 16 17 17 18 18 19 20
10 10 10 6 1 3 3 4 4 4 3 2 2 4 1 2 4 4 2 2 2 4 1 2 3 4 4 2 2 3 4 2 3 5 6 5 5 4 3 3 4 3 2 1 1 1 1 2 1 2 3 1 3 3 4 6 5 4 9 11 10 10 9 10 11 11 10 7 4 4 5 5 6 9 10 11 14 15 16 17 16 15 16 17 18 18 19 20
Wind_Direction
286 290 288 286 285 281 282 283 285 283 279 280 279 280 280 281 282 282 282 281 279 277 275 279 282 285 289 290 294 293 288 283 276 268 261 252 226 237 244 244 245 225 210 197 184 190 200 210 218 216 219 223 222 233 234 222 228 235 234 241 249 244 241 269 15 6 360 64 62 46 40 334 328 2 338 323 247 228 245 227 104 86 72 73 119 154 156 159
280 285 286 289 288 284 283 280 284 286 284 282 278 277 274 273 274 275 280 279 279 278 277 280 281 283 287 291 299 299 291 290 286 267 254 248 238 242 242 235 234 219 203 189 183 194 202 207 210 209 214 223 217 221 230 212 215 234 234 235 241 245 268 325 14 355 1 42 32 25 37 348 332 333 327 313 279 244 250 221 135 98 91 91 120 150 156 162
270 278 282 286 288 286 284 280 283 284 285 283 279 277 274 273 272 274 276 277 280 279 282 283 282 286 288 293 300 301 300 302 293 273 257 248 244 243 237 230 222 214 205 188 187 201 206 208 204 208 215 226 221 214 219 202 200 225 235 243 238 247 317 347 348 344 353 359 342 333 5 9 295 300 317 308 305 288 276 249 169 116 109 115 131 156 163 168
261 268 276 281 284 286 284 283 283 282 283 280 279 277 274 275 274 277 277 279 281 280 284 284 286 290 291 301 301 305 314 313 289 256 244 239 240 234 224 223 214 210 196 177 191 214 215 219 208 209 222 230 223 215 217 200 198 215 221 245 249 264 324 328 324 349 344 328 322 310 308 303 282 313 331 291 291 264 285 301 133 122 127 142 156 174 175 180
256 262 270 276 280 284 285 284 284 282 281 277 278 277 277 278 276 278 279 282 282 281 286 284 289 291 294 302 299 310 318 320 222 190 209 219 223 225 221 221 208 198 179 167 196 226 221 223 214 213 229 241 226 215 222 217 221 229 229 248 260 281 309 313 340 355 329 314 302 289 277 285 292 313 291 274 282 275 321 3 119 131 143 156 171 182 185 190
260 265 268 274 278 282 284 285 285 281 279 276 276 276 278 278 277 280 280 283 284 285 288 286 291 289 295 297 295 308 284 263 104 182 213 221 216 227 226 217 200 183 170 170 211 224 219 223 218 216 226 241 238 225 221 223 228 243 243 248 260 272 279 283 312 327 313 303 287 284 280 287 300 296 276 269 271 279 313 31 130 144 156 167 182 185 189 194
270 270 271 275 278 282 285 285 285 282 279 276 275 275 276 277 278 278 278 282 283 286 288 288 290 287 292 288 289 282 247 259 280 222 226 234 219 231 228 208 195 180 171 185 224 217 215 222 220 220 225 233 242 236 225 227 229 236 250 252 259 264 263 268 280 290 293 288 279 280 280 283 284 276 269 261 263 276 287 128 136 153 156 167 187 189 187 185
277 277 277 278 280 283 284 283 284 282 279 276 275 275 276 278 277 278 279 279 281 284 287 288 288 289 290 286 292 270 248 249 235 211 232 239 222 237 222 196 188 182 179 199 221 215 214 220 222 221 226 231 238 238 228 232 232 231 248 256 262 270 270 267 274 280 273 270 268 268 267 266 262 263 267 266 276 273 265 236 138 153 150 166 181 179 168 159
280 284 285 285 286 286 284 283 282 281 280 277 277 277 278 279 277 278 279 277 278 277 283 286 281 286 288 292 303 283 255 216 199 222 242 249 241 239 207 188 182 182 191 212 218 218 214 217 224 223 233 247 257 259 235 228 231 229 242 248 256 264 263 258 258 260 259 259 259 260 257 255 254 252 258 259 261 260 255 291 190 160 152 162 159 160 165 175
280 286 289 290 291 288 286 283 280 279 279 279 279 281 280 279 278 279 279 277 276 275 279 278 275 279 286 302 292 273 245 176 239 242 244 261 243 212 187 184 181 183 201 217 217 218 217 219 223 229 248 263 273 279 245 233 240 248 252 253 258 263 264 260 254 252 255 257 255 258 260 259 256 248 247 246 246 253 248 245 244 178 143 137 129 142 172 193
280 286 289 292 294 291 287 282 280 279 277 279 280 282 281 279 280 280 280 280 277 277 275 265 270 271 266 283 267 253 222 195 212 204 232 251 215 189 174 183 182 188 209 219 218 219 224 232 240 245 253 259 261 262 248 247 256 265 266 269 269 269 268 263 262 256 252 256 256 257 262 261 255 249 246 247 248 241 225 240 241 140 112 127 134 135 172 217
277 284 288 293 296 294 289 282 280 278 277 279 279 282 281 281 283 283 285 286 283 279 270 261 261 265 272 274 258 246 246 229 202 182 201 198 187 179 172 187 191 198 217 221 218 224 231 241 253 252 258 270 253 257 255 245 252 262 265 274 267 263 260 252 249 245 240 243 248 249 255 254 246 246 242 249 257 238 203 237 216 116 110 132 147 148 174 217
275 282 288 293 297 297 291 284 280 278 278 279 279 282 282 284 287 288 289 285 283 274 261 257 253 254 267 269 261 243 229 229 210 190 190 184 180 181 183 193 199 209 228 232 225 226 232 245 254 254 265 266 250 289 325 250 247 255 253 260 263 264 254 241 235 229 230 233 236 239 256 256 243 239 229 238 258 240 189 233 210 128 128 140 145 152 169 197
276 281 286 292 298 298 292 285 281 279 279 280 280 281 283 287 288 287 288 282 278 268 254 250 245 226 234 254 263 223 211 202 199 198 192 187 182 185 192 197 202 216 231 240 249 231 228 244 255 261 264 256 260 303 313 252 244 254 250 244 244 260 257 243 224 207 216 222 210 197 252 268 269 251 221 219 244 231 185 222 224 145 138 146 143 148 161 174
277 282 285 291 298 298 293 285 281 280 280 281 280 284 287 286 286 284 282 281 273 263 247 234 224 200 237 262 256 226 221 208 206 202 189 187 186 186 191 195 203 217 225 231 253 243 232 244 245 252 252 248 262 283 270 241 232 236 244 244 231 238 261 250 198 180 207 210 186 199 253 259 267 272 235 213 221 217 188 215 234 159 139 145 140 143 152 158
276 281 285 291 298 297 292 284 281 281 281 283 282 287 288 283 283 278 275 281 273 259 213 183 235 224 256 277 240 216 221 216 212 199 189 190 189 188 187 193 205 213 220 223 235 236 232 238 238 243 245 242 243 246 251 247 231 219 222 244 242 228 248 244 161 170 201 195 173 202 251 264 253 279 265 197 189 193 191 224 247 174 141 143 139 144 148 152
274 281 286 293 297 295 291 284 282 284 283 285 285 288 287 280 277 272 274 271 254 232 183 157 317 247 247 262 234 223 218 211 206 194 192 192 191 193 185 190 205 207 213 216 223 231 223 223 231 237 241 243 232 227 238 240 229 215 214 236 254 247 251 227 158 179 201 195 193 203 228 269 267 277 340 133 153 192 213 230 248 182 141 144 140 146 154 157
275 281 288 294 296 293 290 285 284 286 285 287 289 288 280 277 275 267 263 241 192 158 214 204 188 235 246 234 232 231 212 200 195 192 192 191 195 200 189 191 204 201 206 213 215 221 214 211 220 226 227 230 230 224 220 233 235 220 209 210 239 253 264 255 162 169 179 177 219 231 224 245 267 272 221 149 171 204 233 237 242 195 148 153 151 153 160 160
276 281 289 292 293 292 289 286 286 288 288 288 287 285 282 283 279 263 238 200 179 177 240 194 184 219 321 209 213 215 180 179 183 189 191 190 194 201 197 197 202 199 206 209 200 208 207 203 216 224 223 218 222 228 228 234 241 244 243 237 243 243 249 255 182 148 162 174 209 241 245 240 261 270 265 244 204 202 217 224 244 208 154 164 165 157 166 166
277 282 288 291 292 292 290 287 285 288 290 286 281 282 287 288 275 240 198 208 216 226 255 204 192 224 306 181 194 157 145 165 176 187 190 188 189 198 202 199 201 203 211 213 191 197 206 209 218 219 225 222 219 226 239 248 250 264 292 299 274 259 234 234 190 158 176 204 217 247 265 256 260 268 270 270 254 232 214 195 234 229 164 168 173 165 176 179
279 284 287 289 290 290 290 286 283 288 289 280 272 264 274 308 317 321 202 229 236 240 254 244 211 226 246 223 187 162 164 181 191 193 185 183 186 193 197 198 204 201 214 225 205 191 206 222 227 222 226 230 228 223 232 253 260 270 294 290 272 270 259 255 221 160 157 167 223 259 271 264 258 261 263 266 266 266 256 206 204 234 208 179 176 176 182 186
282 285 287 287 289 292 288 283 283 286 279 264 256 244 263 324 341 326 306 273 260 247 243 243 234 231 236 242 202 179 198 198 197 197 180 177 186 191 186 192 211 206 208 226 214 192 207 228 233 230 230 231 236 232 222 242 257 264 270 261 263 268 272 270 254 190 156 165 220 262 272 266 259 252 249 253 249 257 268 257 205 218 241 211 180 178 183 184
283 284 287 287 291 292 282 282 285 280 272 257 244 233 271 316 320 314 304 282 276 254 232 227 228 228 225 228 215 204 219 209 201 193 178 177 190 197 191 188 212 217 206 216 217 206 205 222 226 225 231 235 235 236 233 250 258 253 247 246 251 257 264 268 248 224 218 230 351 293 284 274 272 272 266 261 256 253 258 261 240 209 231 237 194 178 179 177
283 283 286 288 293 290 282 286 283 282 275 251 246 238 273 303 300 319 307 272 278 255 227 217 218 221 218 219 212 207 219 223 218 192 175 184 196 200 205 197 207 222 215 213 218 221 228 233 222 210 220 230 227 222 227 254 261 242 242 247 251 250 251 255 256 253 257 224 169 246 274 270 263 265 263 258 253 251 247 253 255 225 218 236 216 188 181 182
283 282 286 290 292 284 285 293 293 318 295 252 281 263 263 292 287 319 315 265 261 233 213 206 210 217 205 200 200 204 214 222 229 202 175 188 202 197 208 207 204 222 221 218 222 223 239 251 229 207 225 219 212 220 216 227 249 244 233 235 249 259 259 262 272 283 270 233 208 224 253 257 245 243 246 246 237 237 234 233 249 245 224 224 230 210 186 183
282 283 288 289 285 272 273 305 176 316 268 249 273 242 232 287 285 307 315 265 252 189 174 180 189 189 181 184 187 196 214 219 224 213 179 186 206 204 207 207 199 225 227 221 230 219 235 253 233 214 242 195 200 232 220 219 235 249 239 224 231 245 257 264 275 287 273 260 268 266 272 279 258 254 259 262 251 239 225 212 226 241 235 224 229 229 202 187
283 284 289 284 280 250 227 230 194 219 263 234 214 214 242 277 273 297 286 253 241 167 153 162 175 179 184 188 181 185 226 204 203 214 195 183 202 215 220 212 196 221 236 228 230 210 219 243 226 205 233 217 216 236 221 219 226 240 247 238 231 231 240 246 250 265 274 277 281 272 270 277 269 274 284 284 287 270 239 223 235 238 244 238 222 315 292 202
285 285 288 277 267 249 235 243 225 227 299 57 183 269 280 261 267 303 255 242 191 151 147 148 150 167 180 181 183 194 250 161 182 203 202 187 193 211 223 227 218 210 224 236 237 210 210 236 220 185 218 233 225 236 227 218 227 242 246 256 263 250 251 262 256 252 258 261 266 260 254 261 259 254 260 267 285 282 258 37 25 8 351 352 36 34 8 2
286 282 286 271 247 253 259 255 234 223 262 359 282 282 266 249 261 267 254 242 160 151 143 143 146 164 177 174 190 208 215 201 196 183 188 190 195 211 226 233 240 227 215 229 246 231 206 226 233 204 212 240 233 235 234 221 223 243 250 266 284 264 257 280 276 262 260 250 251 253 251 265 275 265 257 255 287 337 11 49 42 27 16 12 22 30 18 2
285 280 283 265 226 215 265 263 245 228 235 293 276 260 255 250 241 232 223 202 189 168 139 146 166 179 184 179 193 211 210 216 228 175 180 189 196 216 235 233 243 251 223 212 231 252 235 206 232 234 210 229 241 236 235 233 232 242 250 263 267 242 240 259 263 263 266 254 252 255 252 253 265 276 285 281 52 56 54 39 36 36 23 13 13 18 12 1
284 281 276 257 227 215 227 229 221 263 260 261 246 221 235 240 240 230 184 172 208 159 141 159 179 179 186 195 191 194 206 214 197 172 179 186 193 208 228 230 232 249 242 213 209 241 251 219 220 254 243 237 250 242 229 229 230 237 242 246 249 235 224 234 238 234 240 250 256 257 253 248 254 271 313 83 59 47 48 32 24 27 21 18 15 9 11 20
283 280 269 260 237 220 212 184 152 136 228 232 217 206 230 219 224 236 193 161 193 167 179 184 174 178 188 204 202 180 195 205 175 179 191 187 194 200 208 220 205 208 234 227 205 215 238 235 211 211 228 234 244 243 225 218 213 224 229 218 236 241 224 227 225 225 237 246 253 258 259 252 255 352 61 81 64 46 45 34 20 16 14 16 11 2 14 37
281 276 267 259 241 220 207 186 178 182 203 206 207 227 236 221 215 225 214 189 147 145 219 188 165 186 193 202 211 180 185 198 174 186 204 191 199 203 204 217 210 204 219 223 219 206 216 235 217 199 200 215 231 238 226 217 200 210 226 216 222 233 234 234 227 237 249 255 272 277 270 249 222 47 48 66 70 64 64 54 34 21 14 15 8 358 4 22
276 275 269 254 240 218 202 198 197 200 199 195 215 227 221 234 224 213 220 208 131 102 233 190 150 189 206 222 227 183 184 208 180 182 201 194 203 206 202 217 219 217 224 226 231 217 215 230 223 218 198 185 213 238 242 235 207 205 228 234 229 232 245 246 233 245 252 271 299 294 282 265 226 127 64 75 77 67 67 70 62 33 17 20 14 7 7 11
274 273 270 242 229 214 199 201 197 187 194 207 228 223 206 235 229 208 232 214 124 155 196 187 194 214 211 233 240 205 194 211 188 183 200 201 206 209 198 209 218 220 220 223 227 220 229 236 225 231 221 186 197 226 244 248 228 205 214 227 234 236 247 255 258 273 284 289 289 281 307 7 96 95 57 71 80 68 62 68 70 53 39 37 24 16 13 9
260 255 266 226 205 199 193 198 191 180 196 217 227 225 212 233 234 183 312 3 66 193 181 166 211 230 211 212 235 214 179 190 206 195 199 206 204 207 206 200 207 216 222 222 208 207 228 240 232 230 228 216 207 207 228 244 245 217 211 222 231 236 243 249 253 262 269 266 260 248 264 108 118 68 25 48 71 63 53 63 70 68 59 50 30 18 14 359
227 202 255 237 208 201 191 190 183 181 205 229 230 234 233 238 229 62 360 349 23 327 292 220 204 217 221 207 213 199 159 158 224 216 204 211 202 200 210 206 197 206 220 229 221 207 224 242 240 230 222 226 223 211 215 230 242 249 231 229 228 231 241 245 243 239 234 247 248 232 233 159 125 327 353 14 42 46 31 49 61 60 65 62 27 360 7 2
216 208 262 243 208 199 194 186 181 186 207 234 240 249 263 268 360 52 6 340 334 243 256 258 211 202 230 221 194 189 168 160 204 221 222 213 201 203 213 210 203 204 209 220 227 204 225 249 241 232 221 215 223 225 219 218 226 237 245 246 236 228 230 225 234 241 235 245 254 241 238 108 90 180 322 346 356 8 354 12 44 41 47 56 53 19 358 5
211 228 256 208 177 180 186 178 177 189 209 229 235 239 257 273 32 48 5 330 307 284 256 267 267 238 247 257 223 178 167 174 190 216 231 212 229 302 334 2 230 220 205 205 216 197 200 247 247 233 221 206 210 226 233 220 215 225 238 243 244 251 249 228 227 238 240 244 251 252 245 88 60 64 101 93 347 354 330 359 38 32 20 21 39 40 22 23
204 247 221 168 164 175 174 170 177 195 213 224 240 229 227 243 172 105 21 298 276 282 283 283 279 249 241 258 268 180 167 202 207 214 224 224 335 308 339 351 303 297 265 220 213 203 186 203 240 236 222 217 212 210 229 234 213 210 228 236 234 237 235 226 219 222 244 262 262 263 259 103 40 22 66 118 115 73 30 38 39 17 15 24 30 30 24 25
204 255 197 162 167 168 162 165 183 205 215 220 249 248 217 345 50 121 150 258 266 273 288 300 299 297 282 268 273 257 213 232 225 225 219 34 302 263 8 348 340 353 326 271 227 204 159 191 231 245 227 225 220 204 226 258 254 220 217 230 236 238 234 234 232 215 215 239 257 259 234 100 55 29 41 30 31 60 82 91 83 28 32 32 28 26 23 21
237 253 196 173 172 163 163 178 194 209 218 218 258 273 85 35 300 101 154 209 238 250 247 281 295 308 309 294 297 305 283 252 220 224 85 72 347 278 16 351 332 334 327 305 311 23 41 152 240 253 243 240 246 239 264 309 303 257 233 241 243 242 243 243 248 234 213 236 282 273 136 111 70 54 60 38 7 22 55 79 76 51 41 36 31 25 21 20
246 221 176 176 174 168 181 212 203 208 223 238 301 4 82 205 232 219 199 194 206 237 225 243 262 263 273 286 306 303 316 315 258 210 67 70 51 342 356 349 323 305 295 311 337 7 17 247 241 247 250 254 268 271 258 306 311 276 262 318 308 300 301 280 269 289 215 229 320 337 97 102 71 73 88 88 20 39 48 50 49 47 42 34 31 25 20 21
268 183 174 179 173 178 204 224 202 210 218 228 261 239 74 272 233 245 258 191 178 217 233 254 250 247 269 274 290 276 276 319 272 169 71 61 71 337 316 320 316 323 347 212 303 343 300 247 239 240 239 242 261 266 235 242 305 317 6 1 358 5 357 337 339 42 292 241 173 139 86 83 65 74 89 91 73 58 47 40 40 43 43 37 30 27 26 26
272 185 198 189 179 188 211 244 258 242 205 205 226 216 221 236 211 293 310 257 194 232 256 281 267 213 266 274 265 261 247 258 270 152 99 88 71 334 302 155 87 8 70 193 259 331 298 278 260 252 247 232 236 267 274 266 296 342 6 9 14 21 15 353 336 54 358 286 216 135 131 138 109 82 85 76 62 59 46 38 36 36 39 39 36 34 31 29
257 188 208 186 186 204 219 237 249 249 185 186 193 203 214 209 169 220 272 269 263 298 278 277 268 204 234 277 282 265 254 237 237 240 136 116 78 329 303 117 106 92 146 179 134 42 360 327 304 290 297 303 218 215 283 286 294 349 5 17 28 30 30 25 16 65 15 307 301 65 101 130 114 80 73 63 51 56 50 39 33 27 24 27 37 41 33 29
272 194 202 177 181 211 220 228 235 231 148 174 181 212 209 207 183 174 214 243 222 277 262 240 258 246 211 262 288 293 288 262 225 235 198 135 132 314 317 340 77 63 303 235 167 137 141 321 347 357 347 317 249 204 284 294 295 349 4 15 38 40 43 50 42 23 350 270 284 77 100 112 93 63 54 52 46 50 50 40 32 26 19 20 30 35 31 27
226 256 224 204 186 192 206 219 215 168 155 179 183 294 209 194 199 140 166 238 206 227 269 215 250 268 232 203 237 273 296 298 280 269 286 104 131 139 296 291 44 58 296 247 86 105 231 194 89 11 322 302 289 357 24 318 303 1 24 16 45 50 49 60 42 14 33 91 61 77 90 88 69 50 45 47 47 48 47 39 33 28 22 21 26 28 26 24
243 277 250 234 224 157 148 163 163 155 174 173 140 248 212 175 182 142 144 271 222 182 243 212 253 273 254 210 221 241 266 288 335 356 16 18 339 127 130 284 6 26 359 22 62 37 271 220 151 243 279 286 26 7 91 359 300 354 45 36 55 65 59 64 47 25 47 76 83 89 87 75 55 47 46 47 49 49 45 37 33 29 24 23 25 25 25 25
251 285 263 240 205 130 126 134 154 156 144 142 159 176 186 156 172 174 155 163 12 251 258 251 260 278 291 255 242 265 44 55 50 37 26 345 290 213 74 273 306 5 3 18 59 136 223 4 74 334 291 219 124 265 79 62 2 48 49 36 44 62 60 55 43 27 35 61 97 114 98 79 70 65 53 46 45 45 41 35 32 29 25 25 27 27 26 26
267 287 280 268 160 140 159 149 168 165 138 194 198 143 144 159 161 171 112 124 145 219 268 290 282 287 311 319 271 277 81 101 140 269 278 288 278 266 97 235 240 283 351 356 353 295 251 328 91 267 276 255 96 345 40 68 77 63 42 28 27 44 59 60 50 40 29 17 32 83 80 66 80 79 62 47 43 44 41 33 28 28 28 28 29 28 28 28
288 294 280 276 154 184 212 155 169 181 125 100 113 114 157 203 147 128 67 343 233 188 218 337 4 329 294 277 311 2 40 27 316 312 302 291 282 277 269 250 248 262 285 279 302 4 329 290 242 250 269 326 66 45 54 79 101 56 28 22 21 34 59 68 53 44 36 16 8 56 49 31 49 65 61 48 43 43 41 33 28 27 29 32 34 34 34 34